Helicity
59 68 77 115 130 182 121 128 127 95 101 47 31 57 60 69 60 62 62 56 65 72 65 65 112 112 116 124 120 118 146 87 83 86 74 90 86 55 38 28 63 92 112 162 233
98 56 53 68 60 88 136 132 105 142 154 93 155 47 65 79 79 84 56 56 68 75 89 88 110 112 125 126 133 144 124 57 85 91 75 64 54 63 55 42 21 35 100 138 181
68 53 51 44 44 26 65 133 81 111 165 129 58 91 90 94 100 110 56 59 73 98 97 97 103 120 136 123 132 102 99 101 99 92 110 81 75 45 79 56 30 37 4 104 109
38 94 82 130 45 30 18 44 102 75 132 209 113 132 64 118 159 108 78 62 75 85 106 126 135 150 151 143 133 122 111 120 102 115 97 86 57 77 106 115 88 84 41 -9 103
38 68 69 33 39 31 23 63 53 102 134 222 56 91 118 158 154 103 103 90 101 112 114 107 146 131 139 122 120 123 124 116 83 65 73 76 94 118 123 88 94 99 92 73 31
18 33 18 36 34 47 21 9 41 100 122 229 56 103 118 148 126 67 69 93 96 103 124 118 103 97 113 116 122 95 89 76 58 72 75 91 101 125 127 83 111 88 87 103 84
11 30 32 -0 23 39 31 12 51 67 129 200 125 293 210 222 109 89 89 79 76 68 105 103 79 105 93 105 98 80 92 78 75 68 62 59 111 140 47 23 37 45 68 75 70
-0 25 25 40 26 19 23 24 59 76 126 157 139 278 188 133 85 112 89 116 88 81 63 81 93 99 110 84 100 86 65 109 58 92 83 102 123 95 27 49 57 88 77 102 109
10 23 23 17 37 22 36 82 85 86 148 144 249 175 164 100 98 82 76 56 72 89 89 82 84 91 102 95 104 118 74 63 90 45 72 78 135 122 91 89 93 98 103 82 94
-3 8 7 9 6 45 135 66 36 64 144 203 161 46 79 123 76 52 43 55 64 74 89 100 95 92 94 96 66 58 59 70 113 57 64 72 127 90 115 143 91 98 85 98 98
-6 4 -7 -12 7 40 136 174 162 250 213 161 85 84 155 140 88 71 42 53 65 83 75 81 85 66 45 43 50 56 65 97 128 64 60 34 109 123 109 62 42 60 54 98 114
20 19 -10 -32 -31 -13 100 153 154 339 249 175 120 51 82 114 127 124 66 70 68 60 55 84 64 36 43 40 43 51 76 96 50 14 59 66 86 49 -37 -17 7 8 9 78 99
45 41 37 6 79 146 165 213 174 106 255 236 178 240 133 84 108 92 75 64 54 50 47 58 47 53 36 37 58 75 120 129 84 53 74 17 52 -24 62 52 88 70 90 59 52
45 13 61 41 34 195 199 75 320 200 237 202 147 74 122 64 78 52 46 38 46 49 52 45 48 45 36 45 80 74 22 23 54 66 60 77 115 59 50 50 80 109 100 22 32
51 42 24 22 53 181 131 265 176 97 252 117 125 97 69 45 16 45 35 26 38 44 59 40 49 45 38 34 44 13 61 79 63 -85 -61 -25 23 56 18 -40 -33 -14 -24 -19 -88
74 54 43 108 92 96 172 166 109 127 116 88 121 75 49 51 35 3 7 17 6 39 63 63 47 35 15 16 94 38 -29 -63 -23 -47 -26 12 -34 92 -3 -12 30 38 -8 -20 -47
48 49 66 34 75 84 116 29 102 42 112 73 63 75 47 11 -7 -7 -4 -0 27 54 104 95 52 8 31 14 -40 -54 -49 -119 -59 -47 58 148 103 18 17 -30 10 32 -4 -8 -59
52 55 69 36 61 106 90 24 31 90 49 59 50 35 5 11 -1 -10 -13 -16 -2 -0 -14 -12 -7 -3 -7 -20 -43 -63 -88 -70 -6 49 64 125 81 102 -11 -25 -1 -10 9 60 59
59 76 73 66 32 61 -1 46 92 63 50 35 49 51 44 13 -25 -6 -3 -32 -11 8 -13 20 44 32 68 48 -3 -21 -22 -18 32 40 55 102 126 164 -4 -32 -14 -10 1 65 49
64 81 151 110 52 65 104 94 76 59 19 50 56 48 45 18 16 43 42 48 38 42 27 32 31 51 40 26 9 12 -35 -14 -18 -5 40 105 138 148 45 41 3 -62 12 32 103
92 124 201 128 120 117 171 104 67 46 65 78 80 58 53 55 36 48 50 68 61 48 52 53 55 50 19 49 -4 -18 -33 -23 35 24 39 97 129 79 82 64 34 -35 -32 -26 11
92 74 167 63 53 108 103 87 80 88 95 69 65 52 58 55 58 51 80 86 79 58 69 70 52 59 45 42 36 34 -19 -70 -30 29 63 90 90 30 35 44 70 49 28 6 1
74 101 136 35 49 100 92 77 70 51 51 57 52 46 44 54 60 81 77 40 85 79 72 71 53 33 18 23 -3 -41 -39 -27 1 64 54 81 76 28 23 3 19 14 13 35 59
70 51 64 45 63 59 51 62 33 45 40 31 27 23 34 50 71 74 61 49 75 72 64 56 52 67 59 35 23 8 -45 -25 8 -55 -14 54 56 64 47 38 13 14 18 32 53
43 64 66 42 43 27 31 38 26 15 21 -1 17 4 31 33 31 31 22 23 23 24 27 32 44 54 58 93 93 88 41 2 -11 -16 -4 -28 63 59 64 51 33 7 5 17 26
34 43 21 31 37 17 12 11 10 27 19 21 10 23 12 28 29 24 14 31 32 27 44 53 55 42 51 17 54 89 73 42 39 16 10 9 2 15 27 29 30 18 8 10 14
16 13 16 23 19 20 34 28 21 14 15 8 8 7 13 15 26 37 46 37 49 48 57 77 66 41 93 11 29 46 66 107 89 85 81 85 45 36 44 37 29 32 27 20 28
Wind_Speed
55 49 49 48 46 46 50 52 54 49 44 42 30 33 31 31 33 30 32 30 28 30 28 24 24 24 26 29 30 29 42 48 48 45 46 44 52 47 47 53 52 49 49 51 63
50 43 42 44 44 50 49 50 52 56 53 46 35 26 27 29 30 30 29 25 25 28 26 24 25 24 32 34 35 33 41 45 40 43 52 57 55 60 59 62 62 69 54 64 68
52 53 47 42 41 46 53 55 54 50 50 50 43 14 24 28 31 34 31 26 26 26 23 26 26 30 34 34 38 36 44 40 43 48 53 58 64 54 62 72 63 65 74 75 74
55 55 52 50 43 42 47 51 56 53 50 50 46 15 15 29 45 32 27 24 24 25 25 28 31 36 38 39 40 44 42 43 45 50 59 66 62 64 62 68 67 71 67 74 84
52 51 43 47 45 41 43 48 54 53 52 47 34 20 23 32 31 28 17 20 23 23 25 27 32 35 39 40 41 47 48 51 53 62 63 65 69 72 70 74 73 75 76 73 80
51 50 46 43 40 40 44 48 49 50 50 43 30 29 27 20 25 16 18 22 24 23 25 28 29 30 34 40 44 45 51 58 58 61 66 76 76 66 68 66 70 77 84 81 83
41 46 43 36 37 41 45 48 47 45 40 42 27 30 24 30 16 17 18 21 21 22 23 28 27 31 33 39 42 47 58 60 56 54 59 69 76 67 64 67 78 81 84 87 83
37 47 40 40 38 41 46 50 50 46 41 42 25 25 23 24 14 13 13 16 19 22 23 28 27 29 35 35 43 50 51 59 52 63 58 59 84 60 63 71 88 87 89 91 90
36 41 33 33 36 38 45 52 57 47 44 43 31 26 27 22 13 16 21 17 21 24 26 29 30 32 36 41 50 50 62 64 65 56 58 57 83 69 78 86 94 97 97 95 98
46 28 22 23 27 27 25 21 17 28 31 26 33 24 26 27 17 18 17 22 24 25 31 33 33 35 37 43 58 58 63 60 65 59 64 73 87 99 91 84 87 93 98 95 92
29 12 15 18 19 16 27 27 24 33 27 36 33 31 22 18 16 17 22 21 27 30 34 35 36 39 41 38 41 47 54 64 63 62 74 71 86 92 87 78 78 88 95 95 87
6 10 16 9 19 15 33 33 36 39 27 10 17 9 11 21 21 23 27 29 29 31 31 35 38 30 32 36 43 49 59 64 63 56 64 78 85 79 72 65 73 87 91 74 65
15 11 29 27 22 22 30 36 37 36 26 10 12 15 24 16 20 24 28 27 28 31 32 34 33 32 38 43 49 50 51 57 64 69 59 67 73 53 60 58 73 71 74 56 50
18 19 29 27 18 36 43 41 35 30 31 20 23 22 24 20 16 26 27 27 28 32 33 32 31 35 39 45 40 53 41 48 55 64 59 38 65 52 65 71 78 56 71 56 52
39 36 20 24 50 48 45 40 29 28 23 24 27 28 22 17 8 21 28 29 30 33 32 31 35 38 43 39 33 43 41 46 15 36 25 4 14 14 9 22 35 27 40 6 16
38 37 39 45 42 41 45 36 36 27 14 26 33 28 20 18 19 19 25 29 32 35 34 35 34 35 32 36 24 15 52 48 45 14 15 8 7 18 26 16 16 16 7 9 16
49 48 44 46 48 32 35 40 27 8 36 18 16 32 17 19 22 23 26 30 33 34 36 38 31 28 28 36 34 39 38 36 30 17 3 25 12 2 18 16 8 6 17 11 19
39 41 40 38 30 34 37 41 1 39 23 26 17 10 19 16 19 23 27 30 32 31 32 31 28 23 31 31 35 32 26 26 19 11 15 22 10 12 20 25 12 14 15 14 18
27 31 31 22 23 36 42 41 45 44 50 50 39 22 24 20 24 28 32 32 22 33 17 28 33 30 32 28 27 24 23 23 17 15 9 16 16 22 16 9 22 32 27 42 24
29 29 24 15 36 43 54 61 50 47 52 41 36 31 30 13 8 30 30 30 30 33 33 29 28 31 25 27 28 22 23 18 20 16 7 8 16 12 14 5 10 22 27 37 46
35 46 20 10 48 44 61 55 51 50 45 40 42 43 40 41 38 34 31 30 34 34 36 28 29 25 25 29 22 19 23 18 17 20 16 10 22 8 14 14 14 22 23 18 15
45 59 14 25 49 47 53 46 42 42 37 36 35 38 42 41 37 33 33 33 38 37 31 30 24 23 27 24 20 21 23 25 22 18 16 17 16 9 18 22 28 33 37 42 42
47 46 27 33 61 58 48 45 43 36 31 33 33 31 35 39 39 38 34 29 39 36 30 30 25 19 22 18 34 37 30 18 18 23 18 18 17 20 33 33 38 43 45 42 41
43 48 40 44 44 49 48 43 44 31 37 35 36 36 35 37 36 33 32 30 35 32 27 26 23 21 19 15 17 21 35 43 3 33 23 17 15 22 26 35 34 33 33 32 33
38 45 42 45 41 42 43 42 42 39 32 31 37 33 34 35 34 33 29 26 29 26 25 22 16 16 15 19 20 22 25 26 24 23 21 28 15 19 21 24 26 28 28 29 29
38 42 40 43 39 41 37 37 36 33 33 35 36 31 31 34 32 29 27 27 25 24 21 20 14 8 5 8 12 13 22 23 24 25 25 23 23 26 24 26 26 26 28 27 26
33 35 34 35 36 38 38 36 34 31 33 31 29 28 29 29 27 26 26 24 21 17 16 15 13 11 9 7 9 10 14 20 21 20 20 18 19 21 21 22 23 24 25 24 23
Wind_Direction
311 313 310 306 300 294 287 279 273 276 276 288 255 259 269 279 286 288 283 289 297 301 303 310 316 313 314 307 312 315 300 298 300 303 306 315 310 317 318 308 306 308 302 303 303
318 311 311 308 305 283 283 281 275 267 269 278 300 259 264 276 279 282 287 297 304 304 301 301 301 307 299 300 305 306 302 301 309 309 304 307 310 310 308 304 301 298 301 299 300
319 302 301 301 301 288 275 274 272 270 268 265 271 262 263 272 271 279 286 294 302 306 310 307 305 301 297 301 302 305 301 308 309 310 311 308 308 313 307 299 302 300 296 296 295
316 304 291 290 295 293 278 272 267 264 265 261 269 250 286 270 257 277 289 296 302 303 305 303 300 293 294 296 302 301 307 311 313 313 309 306 310 308 306 304 305 301 300 297 289
329 305 297 286 284 286 285 275 265 259 257 261 260 252 281 264 270 280 295 305 308 310 307 302 297 297 293 299 301 300 304 308 310 308 307 307 305 305 304 304 303 302 299 295 291
331 312 283 287 283 283 279 277 266 253 251 253 246 235 253 267 275 291 299 302 305 309 309 308 304 309 306 302 301 306 306 307 310 309 308 304 305 309 310 308 303 300 296 296 292
9 304 287 289 286 281 277 274 261 249 245 240 233 250 253 263 284 306 300 303 313 313 314 316 317 310 310 305 312 310 306 311 315 320 315 315 307 308 313 310 304 302 299 296 292
27 324 294 282 275 273 272 252 247 238 236 235 213 247 243 259 289 309 322 325 330 332 328 322 330 321 314 316 315 310 314 311 320 319 320 322 308 319 321 314 306 303 300 296 292
41 14 298 274 272 270 272 233 224 226 219 223 216 230 226 242 269 289 299 306 318 321 327 324 322 317 315 309 305 314 305 310 316 327 322 320 310 317 320 314 307 304 301 297 292
38 338 288 269 277 263 287 198 186 191 198 193 210 240 243 242 267 286 307 311 310 312 310 313 317 310 312 308 297 305 309 314 316 323 322 316 310 312 316 314 311 309 304 299 292
334 252 245 230 239 249 192 160 169 188 203 218 219 249 224 237 273 300 301 313 305 308 301 312 306 303 308 319 319 319 319 314 319 324 320 319 316 319 318 319 318 317 311 302 292
232 204 204 218 190 211 191 188 182 179 143 125 140 136 207 246 257 275 285 295 302 300 316 312 307 323 328 328 324 322 319 318 323 333 328 324 321 320 323 327 329 328 323 315 302
124 176 167 170 176 177 170 174 186 186 175 174 184 216 235 262 262 262 275 294 311 311 315 314 319 328 325 323 322 324 322 324 324 330 331 330 331 335 340 341 342 349 348 336 316
108 139 168 181 183 175 171 169 172 194 178 200 212 228 233 232 278 255 276 309 325 319 325 323 331 328 325 323 332 325 339 333 336 336 341 1 345 343 338 340 342 13 1 345 319
103 115 134 155 153 160 164 182 189 192 178 211 205 208 222 279 340 288 282 322 331 327 328 324 322 322 322 332 347 335 350 338 333 253 248 54 12 44 12 7 13 6 28 92 137
99 113 125 136 141 152 162 189 189 197 216 211 200 205 232 269 299 346 327 326 326 321 320 315 321 325 340 348 5 324 280 275 321 182 225 62 45 44 40 350 346 7 124 122 234
99 106 119 134 136 163 170 171 174 188 180 208 216 197 257 354 6 342 341 334 331 326 320 312 321 345 0 352 291 280 275 270 258 227 212 45 57 266 32 18 324 345 106 172 119
110 114 121 131 149 158 163 160 175 167 194 195 209 305 1 299 315 322 335 339 357 349 331 326 331 355 253 241 267 257 254 257 228 204 263 71 100 54 51 40 85 105 135 140 292
127 122 122 138 162 157 146 143 146 153 154 156 169 211 228 262 357 1 7 12 13 181 241 192 192 207 187 185 233 223 241 230 194 134 181 100 79 70 32 68 73 72 93 71 123
136 130 116 133 139 139 132 124 136 148 144 157 168 196 195 249 225 176 169 174 170 175 177 175 180 176 191 184 190 172 250 181 227 233 175 144 86 42 359 50 122 98 98 78 48
126 113 120 142 121 128 119 126 135 139 139 145 147 150 156 157 161 165 166 169 166 165 162 172 165 181 181 164 215 207 250 220 180 145 118 171 91 67 63 85 118 107 109 135 207
110 102 124 134 119 124 121 133 141 144 148 151 154 154 154 157 162 168 167 168 160 159 161 156 191 197 193 155 164 172 210 257 245 144 168 149 124 104 94 101 103 107 106 106 109
107 108 117 135 111 114 125 132 134 145 155 158 161 167 168 156 152 158 163 175 149 146 146 126 147 148 148 137 325 286 233 189 218 93 159 137 126 118 90 103 111 113 112 116 116
112 106 113 114 125 122 124 128 132 150 145 151 155 160 159 155 164 161 162 165 147 160 167 158 156 143 131 157 184 203 231 301 300 242 235 167 132 104 109 93 115 121 123 120 123
111 106 117 113 117 122 128 132 130 134 149 153 151 154 158 150 154 153 168 178 175 182 170 163 151 159 201 224 219 214 212 206 192 190 176 250 101 88 116 126 115 128 131 128 133
108 110 118 117 127 123 129 133 136 143 146 145 143 155 155 146 150 151 162 156 150 157 153 149 128 135 206 149 143 190 202 193 184 185 189 184 191 180 148 144 147 148 154 156 156
112 121 123 124 121 122 130 134 138 144 151 155 156 157 154 154 167 180 182 179 167 153 139 126 110 78 81 103 231 187 155 162 146 138 138 143 144 123 131 138 147 147 151 152 148